Wetbulb
54.86 55.06 55.12 55.21 55.49 55.65 55.71 55.67 55.69 55.57 55.51 55.47 55.11 55.10 54.92 53.94 53.91 51.00 45.58 47.78 47.34 43.54 45.11 48.65 51.13 46.66 46.15 43.47 41.29 44.13 44.53 45.83 43.78 40.32 39.51 39.05 38.19 39.63 37.98 38.66 38.44 37.88 36.40 36.17 37.00 34.72 34.37 50.45 50.18 44.39 45.89 48.44 50.59 52.23
54.84 54.86 54.86 55.04 55.21 55.39 55.39 55.09 55.29 55.33 55.47 55.43 54.95 54.73 54.79 54.31 53.96 51.77 41.78 46.50 48.53 45.86 46.38 49.71 52.39 53.45 52.63 49.86 44.65 42.82 44.56 44.36 45.09 41.53 40.40 39.72 39.10 38.58 36.90 35.57 42.30 37.53 40.66 38.36 40.30 40.14 46.48 49.37 49.18 50.99 50.99 49.50 50.35 51.02
54.52 54.44 54.68 54.80 54.90 55.05 55.27 54.84 55.27 55.25 55.08 55.25 54.78 54.56 54.44 54.56 53.72 51.50 44.70 45.08 46.08 45.24 45.84 46.37 48.40 51.73 51.58 51.94 50.36 44.48 44.46 46.67 45.31 45.97 42.39 40.52 39.25 40.47 36.83 38.16 39.67 43.17 45.24 41.79 42.17 43.72 48.25 49.68 50.61 51.56 51.03 50.67 52.25 52.79
54.18 54.16 54.46 54.66 54.78 54.87 55.03 54.82 55.23 55.11 54.96 55.12 54.82 54.36 54.33 54.29 53.61 52.44 44.54 44.94 45.50 45.25 41.65 46.30 51.76 48.11 51.94 50.78 50.97 50.01 49.29 47.71 47.15 46.21 42.56 40.83 40.46 43.56 39.79 41.77 40.88 43.92 44.54 43.17 42.42 44.72 47.52 49.20 49.64 50.49 51.78 52.75 53.04 53.50
53.73 53.82 54.26 54.54 54.60 54.56 54.84 55.03 55.05 54.92 55.07 54.80 54.43 54.07 53.94 53.90 53.13 50.37 46.29 47.14 48.70 45.71 40.83 40.96 46.75 50.47 50.60 51.40 53.21 50.98 49.16 47.07 45.76 44.26 42.43 41.52 42.68 43.16 41.42 42.18 41.16 46.98 43.87 41.89 41.18 45.52 46.11 47.18 50.48 51.97 51.37 51.94 53.19 53.18
53.50 53.70 54.04 54.12 54.28 54.28 54.73 54.83 54.70 54.74 54.80 54.72 54.21 53.94 53.90 53.31 52.41 47.02 48.20 50.03 50.10 48.63 42.32 37.89 46.15 49.22 50.09 50.10 50.34 49.19 48.53 47.08 46.62 45.30 43.95 44.24 45.23 44.36 40.16 38.53 43.62 46.87 48.50 48.43 46.06 48.11 48.99 50.89 52.31 52.81 51.86 52.84 54.03 54.04
53.38 53.52 53.82 53.98 54.14 54.35 54.43 54.30 54.34 54.32 54.40 53.89 53.56 53.33 53.04 52.31 47.41 45.32 48.37 50.43 49.85 48.83 46.05 43.00 43.49 49.29 51.81 48.94 48.36 48.04 47.75 47.45 47.15 45.14 44.17 44.90 45.37 46.53 40.54 38.47 45.50 48.67 50.09 50.36 50.98 49.66 48.22 49.93 49.89 53.06 53.52 54.11 54.76 55.18
53.42 53.58 53.76 53.85 54.01 54.13 54.23 54.10 54.02 54.12 53.38 53.19 52.69 52.65 52.35 52.00 50.79 48.25 51.01 51.38 49.56 47.35 47.64 42.15 43.43 46.95 49.48 46.12 46.10 46.48 44.88 45.14 45.30 45.13 45.59 44.88 46.89 44.19 40.07 45.03 47.29 49.34 49.59 49.57 50.14 50.63 50.62 52.29 52.87 52.96 54.25 55.23 55.07 55.20
53.32 53.32 53.55 53.57 53.77 53.81 53.82 53.88 53.94 53.23 52.59 52.17 52.82 52.74 49.89 48.93 48.13 50.43 55.97 53.02 49.22 48.47 43.82 43.57 42.61 42.65 49.54 45.44 45.24 45.33 44.14 41.11 44.24 42.86 44.50 44.76 41.96 39.48 44.14 46.11 46.81 48.35 47.73 48.68 50.73 51.32 52.08 52.37 53.04 53.91 55.47 55.90 55.50 55.68
53.23 53.09 53.23 53.45 53.67 53.55 53.53 53.84 53.14 52.43 51.49 52.29 49.88 48.79 49.48 48.86 53.60 54.15 50.04 47.21 47.03 46.60 44.64 42.13 44.30 43.15 45.69 43.20 42.30 42.12 42.60 41.27 39.67 42.90 46.66 43.09 42.07 46.70 47.72 48.15 48.50 49.13 49.96 50.49 48.54 50.09 52.35 53.08 53.72 54.54 55.40 56.57 56.85 56.50
52.93 52.89 53.09 53.31 53.41 53.48 53.77 53.15 52.55 51.58 50.61 45.40 42.06 43.33 46.69 50.80 47.49 46.17 44.04 43.63 44.30 42.83 44.27 45.10 44.82 43.07 46.14 42.25 40.98 43.17 40.41 40.46 38.13 42.12 42.92 39.66 40.63 45.88 49.12 48.88 50.05 50.54 51.17 51.70 52.22 53.01 53.89 54.48 54.65 55.43 56.05 56.72 56.82 56.79
52.87 52.87 53.05 53.02 53.14 53.50 53.64 52.85 52.15 48.55 46.41 46.23 46.38 47.89 47.05 47.02 45.36 43.88 43.20 44.81 44.74 43.19 46.06 45.42 44.71 44.80 44.14 45.12 41.90 41.80 40.17 41.45 37.22 47.74 45.17 41.48 45.63 47.06 48.22 49.18 50.45 51.05 52.20 53.67 55.27 55.01 55.94 56.57 56.52 57.07 56.86 57.54 58.23 58.42
52.78 52.72 52.62 52.58 52.88 53.44 53.30 52.91 52.24 51.58 50.07 48.87 46.75 46.79 47.02 45.45 38.16 41.53 40.35 43.53 44.34 47.36 47.15 45.69 44.06 44.26 44.99 44.22 41.83 41.05 38.97 38.34 44.88 40.35 41.45 44.89 47.81 47.31 48.08 49.00 50.26 52.80 54.56 54.54 54.47 56.00 55.69 55.94 57.12 57.04 57.41 58.41 58.99 59.36
52.38 52.36 52.32 52.70 52.98 53.01 52.82 52.60 52.38 49.86 46.44 45.33 45.97 37.60 42.88 41.15 41.88 44.02 43.71 44.86 47.85 49.48 47.28 45.62 43.56 42.02 42.60 41.90 41.54 38.31 40.98 42.63 39.99 38.99 40.82 43.51 44.89 47.00 47.89 48.94 50.36 51.94 53.72 52.66 53.66 55.02 55.31 55.29 55.93 56.88 57.15 57.88 57.32 57.66
52.21 52.21 52.45 52.08 52.24 51.86 51.44 51.13 51.15 46.87 44.02 43.25 44.70 37.03 41.00 45.72 47.33 47.12 48.23 48.12 48.53 47.86 47.11 43.43 42.54 41.87 40.90 40.74 40.65 40.42 39.44 38.87 41.42 39.95 44.10 46.45 45.85 46.43 47.14 48.77 49.93 51.79 54.22 54.10 53.50 54.13 54.68 54.96 55.39 55.29 55.75 56.52 57.00 57.42
52.25 51.25 49.63 51.21 50.92 50.84 50.41 48.63 47.41 46.41 45.83 44.28 43.06 40.88 42.61 42.55 44.82 46.58 47.46 46.14 47.19 48.31 45.88 43.85 40.49 38.96 38.15 39.47 39.00 38.03 39.52 39.05 41.86 43.70 46.29 45.51 46.31 46.57 47.19 49.46 50.52 52.68 54.97 55.37 55.49 55.05 54.81 54.12 53.39 54.01 54.56 54.13 53.64 54.29
50.78 47.37 50.75 50.75 51.29 50.16 49.85 45.07 46.16 45.41 44.90 43.90 41.49 42.95 42.25 42.59 42.53 45.84 47.45 45.85 47.51 45.41 41.88 40.80 38.42 37.03 40.54 38.19 38.10 41.33 39.34 41.39 43.31 45.17 46.18 45.51 46.34 47.91 48.86 50.06 51.80 55.07 55.53 55.31 54.35 53.81 53.65 54.56 54.60 52.33 51.36 52.61 52.08 52.20
46.69 48.32 51.68 51.68 50.05 45.74 45.13 45.52 45.14 44.83 43.54 42.72 40.26 41.84 43.45 45.51 44.98 45.95 49.06 46.13 45.49 44.04 44.30 42.55 41.19 37.55 36.17 35.81 36.17 41.09 42.86 44.67 45.04 45.54 46.27 46.75 47.92 48.80 50.21 50.18 52.62 55.72 55.34 55.21 55.04 53.52 53.02 53.20 50.57 50.29 50.34 50.58 50.55 51.08
49.17 49.98 51.54 51.70 49.27 43.13 41.29 45.15 45.96 40.77 42.25 41.51 42.02 42.61 43.53 44.17 46.64 49.23 49.01 48.91 46.80 47.43 45.92 44.53 40.55 37.81 38.23 39.50 41.23 42.10 42.80 43.89 44.01 45.11 46.98 46.87 47.98 49.70 50.67 51.59 55.15 54.77 54.97 54.65 54.81 54.40 53.12 53.46 52.29 50.70 50.26 49.84 48.74 49.27
51.28 51.41 51.46 51.46 48.73 42.22 41.90 44.76 47.76 42.54 41.04 41.71 42.15 41.60 42.41 42.65 44.16 45.12 45.14 45.87 45.99 46.55 45.69 44.29 43.32 40.97 40.73 42.03 43.41 43.84 45.00 46.09 46.35 45.34 44.88 46.68 49.91 50.57 49.65 52.28 53.93 54.54 54.22 54.05 53.92 51.11 52.59 52.18 53.83 53.28 52.66 50.67 50.13 49.98
48.55 49.75 49.97 47.54 45.35 42.51 41.50 41.13 41.29 42.28 42.67 40.77 42.24 41.38 41.17 42.24 42.43 42.27 43.20 45.67 43.30 42.97 42.00 43.08 43.30 43.97 45.69 48.03 49.00 48.25 48.10 48.34 47.23 46.86 46.62 46.89 50.24 53.38 53.81 54.26 54.62 53.89 53.39 52.44 50.62 50.87 49.87 51.54 52.71 53.62 52.80 53.52 52.33 52.01
45.23 49.99 44.86 48.36 44.87 45.47 42.90 43.37 41.50 42.32 41.08 40.64 41.64 41.52 40.10 41.28 43.63 42.83 43.65 43.11 43.51 44.64 44.42 45.77 46.66 47.46 47.51 47.93 49.47 49.71 51.27 49.62 49.12 48.44 47.47 48.66 51.70 52.62 52.96 53.92 54.20 53.40 53.23 52.04 50.91 50.72 52.43 52.69 50.99 49.49 50.12 52.24 52.10 52.18
47.20 45.52 43.61 44.82 42.45 41.49 40.07 45.27 40.39 43.35 40.82 40.71 41.67 40.52 42.81 42.81 43.09 44.62 42.34 45.43 46.98 48.94 49.32 49.37 49.71 49.56 49.17 50.26 50.34 50.80 51.82 52.35 49.20 49.75 51.99 52.79 53.94 54.54 54.52 54.62 54.44 53.37 52.79 51.17 50.39 51.01 52.25 47.68 47.10 48.40 49.44 48.49 47.86 47.27
47.65 41.64 41.68 42.88 42.43 39.22 44.69 42.61 45.10 44.22 44.29 42.34 40.09 40.00 41.11 41.46 44.26 43.37 40.29 41.98 45.21 48.60 48.04 48.72 48.56 49.53 50.82 50.70 50.00 50.24 50.78 52.29 50.74 53.34 54.16 53.64 53.03 53.59 54.47 54.30 54.26 52.65 50.14 49.48 50.30 49.18 47.86 47.28 44.81 47.12 47.68 47.48 47.29 46.71
37.92 37.36 38.13 34.79 42.20 41.37 40.99 41.37 42.53 42.47 41.56 42.54 38.93 39.05 42.42 45.48 39.21 38.16 41.46 44.06 47.95 48.67 50.90 50.84 48.52 50.22 48.84 49.20 49.23 49.84 51.86 51.76 52.28 51.69 54.26 54.96 54.48 54.46 54.51 53.79 49.52 48.22 48.01 49.34 49.09 47.93 47.20 48.10 47.58 46.98 47.35 47.53 47.30 47.28
35.49 38.54 35.96 40.99 41.02 40.09 41.13 40.02 41.17 41.06 41.27 40.94 41.95 40.62 40.43 38.50 37.67 39.80 41.88 45.03 46.04 48.71 49.66 49.78 49.39 50.41 49.75 49.83 49.73 49.88 51.03 54.42 54.33 53.07 54.06 54.90 54.28 53.50 51.96 49.51 46.13 46.94 48.26 47.03 49.22 49.50 47.36 48.76 48.77 46.95 47.03 46.37 44.32 47.00
35.75 37.12 38.09 43.31 43.52 42.94 41.39 42.49 43.33 41.71 40.43 40.01 40.94 41.98 40.02 37.47 39.60 43.89 46.29 46.73 47.55 48.05 48.55 48.93 51.65 50.42 50.01 50.29 51.15 50.82 51.65 54.49 54.93 54.21 55.35 56.17 55.33 55.06 53.61 52.26 47.16 47.42 47.65 48.52 48.53 48.51 48.33 47.76 47.20 46.29 45.64 45.58 45.83 46.73
40.64 41.09 35.63 39.47 42.13 42.99 40.71 41.10 40.96 40.71 41.27 42.67 38.99 37.84 38.02 39.97 39.73 45.29 47.55 49.00 48.70 48.27 48.73 50.80 51.29 51.31 51.08 50.82 50.41 51.32 52.37 54.71 56.55 56.15 56.07 56.17 56.50 55.66 52.54 52.87 51.61 44.01 46.23 46.66 47.60 47.68 47.39 47.63 47.52 46.42 45.72 44.62 44.20 44.94
37.41 39.42 39.42 38.98 41.41 41.40 41.76 40.82 40.02 41.83 44.36 43.52 40.92 40.26 40.01 43.18 46.64 46.24 46.61 46.66 48.59 49.70 49.78 49.70 49.18 51.38 50.82 49.35 49.61 52.08 52.87 52.79 51.99 50.00 48.68 48.01 48.43 49.88 49.52 49.32 48.83 48.93 47.11 47.06 41.64 44.56 47.12 47.06 46.65 45.82 45.65 44.46 43.44 43.05
37.71 40.18 37.79 38.65 38.31 38.19 41.57 44.03 43.42 46.01 46.91 46.92 47.28 46.14 45.49 45.69 46.03 48.68 48.94 49.05 46.72 47.20 49.03 49.97 49.66 47.98 46.99 46.25 47.07 45.96 46.95 46.66 48.50 50.70 47.92 47.32 47.99 49.38 48.86 48.44 46.40 46.05 46.11 45.92 45.82 45.29 42.76 44.66 43.67 46.21 45.14 43.13 42.17 41.29
40.53 40.01 38.95 39.36 39.08 42.10 45.91 47.65 47.62 47.04 46.77 46.26 47.27 45.60 44.10 43.59 44.53 45.76 47.19 47.81 47.04 46.65 46.32 46.18 46.38 47.96 49.12 48.37 44.85 46.85 44.21 44.30 46.07 47.13 46.97 47.04 46.68 46.67 46.54 47.37 45.88 44.94 44.46 44.41 43.65 43.05 42.53 41.93 41.51 41.33 41.37 41.34 41.52 40.55
41.39 40.25 40.85 39.22 41.75 46.29 47.55 44.41 42.50 43.42 44.30 43.60 43.89 45.06 45.48 43.49 40.18 43.64 46.09 46.30 45.47 44.88 45.19 46.16 48.46 48.30 44.91 44.25 43.37 43.06 41.23 41.45 43.12 44.10 46.26 46.16 45.82 46.33 45.99 43.94 44.00 44.46 44.26 43.62 43.20 42.35 42.68 41.59 41.08 41.05 40.76 40.96 41.19 41.36
40.82 43.15 43.20 43.48 43.15 44.69 45.19 44.17 43.84 42.92 43.18 42.78 43.69 45.80 44.91 42.23 41.29 45.88 52.67 52.85 51.95 50.90 49.19 48.90 49.72 47.56 45.07 44.58 43.39 40.72 39.54 39.01 37.60 37.50 37.60 37.54 37.95 40.21 42.02 42.17 43.54 43.96 43.56 42.70 42.34 42.51 42.29 41.82 40.92 40.41 40.50 40.80 40.93 41.48
MSLP
1026.86 1026.36 1025.89 1025.45 1024.94 1024.49 1024.03 1023.51 1023.00 1022.50 1021.99 1021.46 1020.92 1020.39 1019.87 1019.39 1018.86 1018.55 1017.99 1017.36 1017.44 1017.19 1015.26 1013.98 1013.12 1012.85 1012.88 1013.11 1013.38 1013.17 1013.27 1013.19 1013.61 1014.76 1015.38 1015.57 1015.17 1014.98 1014.88 1014.73 1014.70 1015.09 1015.54 1015.80 1015.68 1015.08 1014.26 1013.71 1013.11 1013.69 1014.31 1014.12 1014.09 1013.78
1026.56 1026.09 1025.59 1025.16 1024.72 1024.28 1023.83 1023.34 1022.84 1022.35 1021.87 1021.37 1020.90 1020.40 1019.92 1019.54 1019.12 1018.65 1018.47 1017.57 1017.51 1017.48 1015.46 1014.06 1012.98 1012.39 1012.31 1012.25 1012.76 1013.37 1013.89 1014.11 1014.43 1015.26 1015.89 1015.95 1015.95 1015.72 1015.88 1015.70 1015.13 1015.65 1015.71 1015.99 1016.08 1015.15 1014.40 1014.14 1014.04 1013.97 1014.22 1014.20 1013.85 1013.57
1026.26 1025.80 1025.32 1024.88 1024.47 1024.03 1023.58 1023.08 1022.58 1022.13 1021.68 1021.20 1020.76 1020.31 1019.87 1019.50 1019.24 1019.06 1018.89 1018.32 1017.71 1017.27 1015.38 1014.03 1012.51 1011.64 1011.73 1011.85 1011.87 1012.85 1013.60 1013.68 1014.20 1014.40 1015.53 1016.17 1016.25 1016.12 1016.36 1016.11 1015.81 1015.54 1015.51 1015.99 1016.00 1015.01 1014.60 1014.26 1014.01 1014.00 1013.83 1013.66 1013.21 1012.79
1025.91 1025.47 1025.04 1024.59 1024.15 1023.72 1023.25 1022.76 1022.27 1021.85 1021.44 1020.98 1020.52 1020.10 1019.66 1019.31 1019.06 1018.87 1018.95 1018.37 1018.29 1017.89 1016.77 1014.08 1012.41 1011.87 1011.26 1011.23 1011.57 1011.92 1012.60 1013.42 1013.97 1014.57 1015.51 1016.15 1016.23 1015.86 1016.09 1015.99 1016.17 1015.64 1015.70 1015.82 1015.79 1015.01 1014.65 1013.94 1013.89 1013.68 1013.23 1012.84 1012.39 1011.88
1025.56 1025.13 1024.77 1024.33 1023.87 1023.39 1022.89 1022.40 1021.93 1021.53 1021.13 1020.69 1020.22 1019.76 1019.35 1018.99 1018.66 1018.39 1018.44 1018.04 1017.84 1018.16 1017.50 1015.43 1013.42 1011.86 1011.25 1011.19 1011.49 1011.92 1012.58 1013.55 1014.49 1015.22 1015.86 1016.09 1015.63 1015.88 1016.11 1016.21 1016.18 1015.39 1015.38 1015.77 1015.65 1015.28 1015.24 1014.44 1013.65 1013.23 1012.90 1012.17 1011.49 1011.08
1025.24 1024.84 1024.47 1024.03 1023.56 1023.09 1022.53 1022.04 1021.60 1021.14 1020.71 1020.24 1019.72 1019.29 1018.98 1018.78 1018.46 1018.26 1018.19 1017.88 1017.53 1017.67 1017.51 1016.30 1013.94 1012.53 1011.54 1011.47 1011.76 1012.15 1012.79 1013.63 1014.34 1015.17 1015.55 1015.38 1014.91 1015.07 1016.13 1016.56 1016.05 1015.79 1015.70 1015.63 1015.43 1015.02 1014.92 1014.02 1013.23 1012.49 1011.97 1011.26 1010.63 1010.18
1024.93 1024.57 1024.15 1023.70 1023.26 1022.79 1022.24 1021.73 1021.29 1020.79 1020.25 1019.66 1019.06 1018.66 1018.45 1018.45 1018.63 1018.44 1017.95 1017.40 1017.37 1017.60 1017.41 1016.66 1014.89 1012.69 1011.84 1011.96 1012.37 1012.72 1013.01 1013.52 1014.08 1014.89 1015.21 1015.12 1014.89 1015.04 1015.99 1016.56 1016.38 1015.98 1015.64 1015.20 1014.86 1014.89 1014.43 1013.38 1012.60 1011.68 1011.00 1010.11 1009.54 1008.77
1024.62 1024.27 1023.85 1023.39 1022.95 1022.51 1021.97 1021.47 1020.98 1020.37 1019.70 1018.97 1018.27 1017.82 1017.67 1017.78 1018.09 1017.67 1016.68 1016.42 1017.06 1017.50 1017.36 1017.11 1015.49 1013.68 1012.37 1012.99 1013.37 1013.24 1013.69 1014.02 1014.32 1014.49 1014.80 1014.99 1015.29 1015.67 1016.47 1016.53 1016.20 1015.77 1015.34 1014.97 1014.45 1014.20 1013.63 1012.53 1011.73 1010.94 1010.16 1009.37 1008.55 1007.60
1024.29 1023.93 1023.52 1023.12 1022.69 1022.28 1021.78 1021.23 1020.65 1019.93 1019.12 1018.29 1017.61 1017.16 1017.37 1017.58 1017.65 1017.28 1016.74 1016.74 1016.90 1017.57 1017.41 1017.14 1016.28 1014.76 1013.23 1013.75 1013.98 1013.81 1014.08 1014.57 1014.71 1014.74 1014.90 1015.22 1016.07 1016.57 1016.48 1016.33 1015.99 1015.45 1015.25 1014.68 1013.96 1013.43 1012.63 1012.03 1011.09 1010.22 1009.46 1008.53 1007.76 1006.77
1023.89 1023.58 1023.20 1022.83 1022.47 1022.10 1021.67 1021.07 1020.45 1019.59 1018.64 1017.75 1017.40 1017.47 1017.65 1017.52 1017.14 1016.92 1016.84 1016.92 1016.99 1017.21 1017.22 1016.98 1016.04 1015.21 1014.40 1014.62 1014.64 1014.93 1014.93 1015.32 1015.18 1015.04 1014.96 1015.47 1016.52 1016.38 1016.09 1015.87 1015.48 1014.96 1014.49 1014.10 1013.71 1012.64 1011.88 1011.24 1010.44 1009.45 1008.61 1007.80 1007.01 1006.20
1023.55 1023.25 1022.90 1022.58 1022.29 1021.95 1021.56 1021.06 1020.45 1019.51 1018.47 1018.63 1018.97 1018.88 1018.11 1017.28 1017.04 1016.98 1016.95 1016.95 1016.92 1016.92 1016.65 1016.01 1015.58 1015.21 1014.29 1014.76 1015.09 1015.23 1015.42 1015.62 1015.54 1015.15 1015.14 1016.12 1016.62 1016.24 1015.77 1015.62 1014.97 1014.46 1013.86 1013.35 1012.97 1012.36 1011.58 1010.86 1010.03 1009.07 1008.09 1007.18 1006.42 1005.56
1023.24 1022.95 1022.70 1022.42 1022.14 1021.82 1021.51 1021.13 1020.72 1020.41 1020.34 1020.30 1020.33 1019.68 1018.87 1017.81 1017.22 1017.01 1016.49 1016.31 1016.17 1015.70 1015.37 1015.11 1014.70 1014.68 1014.39 1014.34 1014.88 1015.31 1015.43 1015.67 1015.39 1014.84 1015.04 1015.99 1016.23 1015.93 1015.88 1015.35 1014.61 1014.01 1013.51 1012.87 1012.25 1011.74 1010.92 1010.19 1009.50 1008.65 1007.81 1006.89 1005.65 1005.13
1023.02 1022.77 1022.58 1022.35 1022.04 1021.72 1021.37 1021.02 1020.75 1020.53 1020.04 1020.06 1019.98 1019.46 1018.85 1017.90 1017.22 1016.55 1015.86 1015.41 1015.15 1014.53 1014.32 1014.39 1014.59 1014.67 1014.40 1014.58 1015.07 1015.41 1015.58 1015.55 1014.94 1015.07 1015.47 1016.01 1015.99 1015.84 1015.58 1015.14 1014.38 1013.73 1013.18 1012.64 1011.99 1011.26 1010.71 1010.06 1009.31 1008.71 1007.87 1007.12 1006.24 1005.27
1022.90 1022.68 1022.44 1022.17 1021.88 1021.53 1021.16 1020.87 1020.64 1020.39 1020.41 1020.15 1019.77 1019.30 1018.53 1017.38 1016.53 1015.69 1015.09 1014.73 1014.14 1013.92 1014.01 1014.34 1014.69 1014.88 1014.90 1014.97 1015.19 1015.43 1015.30 1015.20 1015.09 1015.38 1015.97 1016.12 1015.89 1015.76 1015.37 1014.82 1014.40 1013.72 1013.21 1012.65 1012.12 1011.48 1010.85 1010.25 1009.62 1008.95 1008.23 1007.45 1006.61 1005.65
1022.77 1022.55 1022.28 1021.95 1021.73 1021.35 1020.99 1020.73 1020.56 1020.61 1020.64 1020.24 1019.67 1018.94 1017.92 1016.73 1015.93 1014.99 1014.26 1014.13 1013.95 1013.88 1014.08 1014.55 1014.88 1015.32 1015.37 1015.38 1015.46 1015.47 1015.39 1015.32 1015.61 1015.98 1015.87 1015.65 1015.58 1015.55 1015.14 1014.66 1014.15 1013.58 1013.10 1012.57 1012.20 1011.75 1011.19 1010.62 1009.97 1009.28 1008.54 1007.81 1007.03 1006.30
1022.62 1022.36 1022.19 1021.91 1021.58 1021.15 1020.66 1020.46 1020.45 1020.58 1020.40 1020.11 1019.40 1018.68 1017.64 1016.99 1016.08 1015.35 1014.62 1014.38 1014.08 1014.02 1014.50 1014.95 1015.44 1015.73 1015.78 1015.80 1015.75 1015.66 1015.67 1015.83 1016.02 1015.80 1015.57 1015.52 1015.30 1015.20 1014.87 1014.38 1013.81 1013.37 1013.00 1012.41 1012.12 1011.74 1011.21 1010.83 1010.40 1009.82 1009.11 1008.28 1007.60 1006.96
1022.68 1022.43 1022.03 1021.81 1021.40 1020.80 1020.36 1020.55 1020.60 1020.44 1020.12 1019.64 1018.97 1018.26 1017.93 1017.32 1016.76 1015.77 1015.15 1014.77 1014.57 1014.83 1015.34 1015.57 1015.90 1015.93 1016.03 1016.15 1016.08 1015.87 1015.98 1015.96 1015.74 1015.58 1015.36 1015.22 1015.14 1014.83 1014.40 1013.91 1013.38 1013.11 1012.72 1012.17 1012.00 1011.59 1011.29 1010.95 1010.58 1010.11 1009.71 1009.02 1008.23 1007.52
1022.76 1022.35 1022.04 1021.80 1021.40 1020.99 1020.71 1020.61 1020.60 1020.29 1019.71 1019.14 1018.98 1018.24 1017.63 1016.91 1016.32 1015.56 1014.94 1014.83 1015.20 1015.37 1015.66 1015.76 1015.64 1016.02 1016.32 1016.43 1016.28 1016.01 1015.94 1015.69 1015.52 1015.41 1015.19 1015.01 1014.79 1014.42 1013.94 1013.62 1013.15 1012.81 1012.39 1011.93 1011.78 1011.61 1011.30 1010.98 1010.86 1010.63 1010.15 1009.83 1009.16 1008.36
1022.50 1022.27 1021.92 1021.75 1021.72 1021.82 1021.48 1020.71 1020.51 1020.29 1019.50 1018.92 1018.39 1017.86 1017.41 1016.81 1015.72 1015.18 1015.10 1014.69 1014.90 1015.22 1015.55 1015.78 1016.21 1016.32 1016.27 1016.03 1015.85 1015.76 1015.67 1015.85 1015.67 1015.34 1015.10 1014.70 1014.44 1014.07 1013.69 1013.32 1012.96 1012.54 1012.11 1011.92 1011.57 1011.50 1011.01 1010.84 1010.83 1010.68 1010.49 1010.26 1009.98 1009.51
1022.23 1021.87 1021.62 1021.38 1021.58 1021.92 1021.65 1020.72 1020.07 1020.08 1019.56 1018.79 1018.34 1017.81 1017.44 1016.82 1015.82 1015.16 1014.91 1014.89 1015.13 1015.63 1015.86 1016.15 1016.51 1015.77 1015.50 1015.22 1014.93 1015.00 1015.10 1015.27 1015.31 1015.27 1015.01 1014.51 1014.05 1013.74 1013.62 1013.31 1013.15 1012.75 1012.22 1011.74 1011.27 1011.02 1010.69 1010.65 1010.63 1010.56 1010.47 1010.37 1010.10 1009.84
1022.12 1021.68 1021.45 1021.55 1021.73 1021.86 1021.78 1021.02 1020.37 1019.79 1019.21 1018.85 1017.97 1017.75 1017.01 1016.27 1015.95 1015.49 1015.12 1014.88 1015.35 1015.70 1015.77 1015.49 1015.22 1014.83 1014.64 1014.43 1014.29 1014.32 1014.40 1014.52 1014.69 1014.70 1014.49 1014.35 1013.82 1013.63 1013.27 1013.04 1012.70 1012.57 1012.14 1011.57 1011.04 1010.64 1010.46 1010.52 1010.40 1010.17 1010.25 1010.22 1010.08 1010.06
1022.29 1021.77 1021.77 1021.68 1021.74 1021.55 1021.42 1020.56 1020.39 1019.54 1019.46 1018.45 1018.01 1017.35 1017.04 1016.42 1015.71 1015.15 1014.86 1015.11 1015.24 1015.03 1015.12 1015.08 1014.82 1014.72 1014.58 1014.34 1014.09 1013.98 1013.87 1013.87 1013.96 1014.08 1013.98 1013.97 1013.82 1013.51 1013.22 1012.86 1012.60 1012.20 1011.63 1011.07 1010.65 1010.51 1010.40 1010.23 1010.10 1010.05 1010.07 1010.04 1010.23 1010.30
1022.26 1022.14 1022.05 1021.84 1021.82 1021.50 1020.96 1020.06 1019.96 1019.16 1018.88 1018.23 1017.68 1017.35 1016.54 1015.85 1015.14 1014.78 1015.01 1015.12 1015.11 1015.05 1014.87 1014.86 1014.71 1014.53 1014.38 1013.98 1013.79 1013.67 1013.44 1013.48 1013.63 1013.73 1013.83 1013.77 1013.60 1013.48 1013.19 1012.47 1012.09 1011.70 1011.02 1010.65 1010.34 1010.34 1010.50 1010.24 1010.24 1010.28 1010.29 1010.46 1010.63 1010.78
1022.33 1022.53 1022.32 1021.96 1021.72 1021.13 1020.32 1019.72 1019.11 1018.71 1018.11 1017.82 1017.54 1016.97 1016.25 1015.62 1015.07 1015.00 1015.48 1015.76 1015.68 1015.35 1015.13 1014.86 1014.83 1014.67 1014.19 1013.93 1014.06 1013.81 1013.57 1013.32 1013.55 1013.70 1013.72 1013.70 1013.53 1013.41 1013.01 1012.59 1011.85 1011.29 1010.86 1010.57 1010.25 1010.39 1010.56 1010.69 1010.65 1010.63 1010.77 1010.96 1011.12 1011.28
1023.05 1022.75 1022.63 1021.90 1021.33 1020.93 1020.11 1019.34 1018.68 1018.28 1017.84 1017.42 1017.19 1016.60 1015.93 1015.41 1015.50 1015.52 1015.79 1015.93 1015.66 1015.25 1015.09 1015.01 1014.97 1014.87 1014.73 1014.35 1014.27 1013.99 1013.74 1013.58 1013.59 1013.73 1013.31 1013.29 1013.47 1013.49 1012.85 1012.32 1011.88 1011.36 1010.93 1010.67 1010.73 1010.92 1011.13 1011.08 1010.94 1011.03 1011.16 1011.22 1011.45 1011.59
1022.83 1022.28 1022.29 1021.28 1020.60 1020.34 1019.53 1018.91 1018.36 1018.05 1017.78 1017.34 1016.81 1016.28 1015.94 1015.82 1015.74 1015.76 1015.94 1015.88 1015.72 1015.44 1015.15 1015.03 1015.10 1014.91 1014.90 1014.66 1014.41 1013.89 1013.41 1013.12 1013.26 1013.12 1013.41 1013.15 1012.86 1013.30 1013.16 1012.81 1012.37 1011.84 1011.52 1011.35 1011.16 1011.30 1011.37 1011.32 1011.44 1011.56 1011.70 1011.71 1011.73 1011.76
1022.45 1021.78 1021.29 1020.37 1019.99 1019.57 1019.17 1018.62 1018.18 1018.01 1017.61 1017.19 1016.72 1016.51 1016.16 1015.93 1015.73 1015.99 1015.67 1015.55 1015.53 1015.16 1014.94 1014.85 1014.68 1015.03 1014.82 1014.27 1013.83 1013.45 1013.22 1013.33 1013.14 1013.23 1013.30 1012.75 1012.45 1012.52 1012.74 1012.85 1012.59 1012.26 1011.96 1011.73 1011.72 1011.64 1011.72 1011.83 1012.05 1012.18 1012.24 1012.30 1012.31 1012.18
1021.81 1021.26 1021.08 1020.20 1019.66 1019.23 1019.01 1018.61 1018.19 1017.59 1017.09 1016.82 1017.03 1016.75 1016.49 1016.13 1016.14 1015.95 1015.65 1015.40 1015.15 1014.90 1014.76 1014.50 1014.58 1014.51 1014.04 1013.84 1013.58 1013.30 1013.17 1013.14 1013.07 1013.47 1013.03 1012.64 1012.33 1012.15 1012.03 1011.99 1012.00 1012.32 1012.29 1012.19 1012.15 1012.07 1011.99 1012.07 1012.35 1012.54 1012.65 1012.87 1012.88 1012.73
1021.55 1020.91 1020.57 1019.91 1019.32 1018.84 1018.42 1018.19 1017.77 1017.08 1016.72 1016.86 1016.99 1016.91 1016.52 1016.23 1015.82 1015.64 1015.51 1015.28 1015.02 1014.96 1014.65 1014.22 1014.06 1014.10 1013.85 1013.74 1013.63 1013.55 1013.39 1013.30 1013.67 1013.65 1013.45 1012.97 1012.34 1012.13 1012.09 1012.22 1012.44 1012.63 1012.56 1012.64 1012.63 1012.50 1012.45 1012.70 1012.95 1013.00 1013.09 1013.23 1013.34 1013.23
1020.53 1019.98 1019.90 1019.22 1018.77 1018.23 1017.46 1017.10 1016.91 1016.60 1016.41 1016.34 1016.26 1016.27 1016.23 1015.84 1015.39 1015.17 1015.13 1015.06 1015.14 1015.12 1015.05 1014.83 1014.38 1014.43 1014.00 1014.01 1014.04 1013.96 1013.84 1013.79 1013.62 1013.52 1013.31 1013.50 1013.20 1012.75 1012.57 1012.70 1012.98 1013.05 1013.05 1013.11 1013.30 1013.36 1013.18 1013.21 1013.31 1013.27 1013.44 1013.62 1013.71 1013.70
1019.09 1019.08 1018.94 1018.42 1017.69 1016.91 1016.54 1016.57 1016.62 1016.63 1016.63 1016.43 1016.35 1016.34 1016.03 1015.75 1014.97 1014.26 1014.21 1014.16 1014.27 1014.39 1014.52 1014.38 1014.37 1014.19 1013.87 1014.02 1014.16 1014.24 1014.38 1014.19 1013.90 1013.66 1013.32 1013.43 1013.34 1013.25 1013.17 1013.19 1013.32 1013.41 1013.53 1013.72 1013.95 1014.08 1014.12 1014.22 1014.28 1014.27 1014.26 1014.25 1014.21 1014.16
1017.95 1017.78 1017.47 1017.26 1016.74 1016.54 1016.53 1016.69 1016.80 1016.59 1016.41 1016.34 1016.05 1015.85 1015.61 1015.53 1015.30 1014.33 1013.27 1013.37 1013.87 1014.04 1014.10 1014.26 1014.28 1014.27 1014.19 1014.39 1014.49 1014.51 1014.48 1014.67 1014.52 1014.31 1013.91 1013.76 1013.87 1013.70 1013.75 1013.78 1013.77 1013.83 1014.05 1014.27 1014.38 1014.52 1014.54 1014.59 1014.59 1014.53 1014.52 1014.50 1014.39 1014.24
1016.37 1016.08 1016.09 1016.27 1016.34 1016.30 1016.42 1016.58 1016.44 1016.25 1016.07 1015.87 1015.45 1015.21 1015.04 1015.06 1014.60 1013.89 1013.09 1013.00 1013.16 1013.31 1013.49 1013.63 1014.08 1014.10 1014.41 1014.56 1014.64 1014.82 1014.94 1015.04 1014.96 1014.76 1014.58 1014.51 1014.40 1014.35 1014.36 1014.42 1014.48 1014.51 1014.60 1014.78 1014.90 1014.89 1014.90 1014.88 1014.84 1014.75 1014.67 1014.61 1014.49 1014.36
Wind_Speed
14 14 14 14 15 15 16 17 17 17 17 18 19 20 20 20 19 9 4 3 3 1 7 3 2 2 3 2 2 4 4 5 5 5 3 2 2 1 3 3 2 3 3 1 1 2 4 5 4 4 4 3 5 4
15 14 14 14 15 15 16 18 17 16 16 17 18 18 18 17 16 12 3 2 1 3 6 3 6 6 7 7 5 3 5 2 4 5 1 2 2 2 2 1 4 3 5 3 6 6 4 2 2 3 2 5 6 6
15 14 14 14 14 15 16 18 17 16 16 16 17 18 17 15 15 10 3 4 3 2 5 4 3 4 4 6 5 5 2 3 1 4 4 2 1 4 2 4 1 2 2 2 3 3 5 6 4 3 4 7 11 11
16 15 14 14 15 15 17 18 16 16 16 16 17 18 17 15 14 11 2 1 1 0 2 7 4 5 4 4 4 4 5 4 5 3 3 3 2 3 4 3 4 5 1 3 5 6 7 4 1 4 11 13 14 13
15 14 14 15 15 16 17 17 16 16 16 17 18 18 17 16 15 7 3 3 2 3 2 6 10 5 6 5 7 5 5 3 2 3 2 3 1 3 1 2 3 4 5 3 5 3 4 8 9 11 13 15 16 15
14 13 14 15 15 16 16 16 16 16 17 17 18 18 16 13 12 2 3 0 1 2 2 4 5 5 3 2 4 4 4 3 3 4 3 3 3 4 3 3 4 2 2 3 5 2 6 15 16 16 15 16 18 16
14 14 14 15 16 16 16 16 16 17 18 20 20 18 15 9 0 2 4 2 2 2 2 5 6 5 2 3 1 0 1 2 4 3 2 3 1 4 3 1 4 4 7 7 7 4 8 7 10 17 18 20 19 19
13 14 14 15 16 16 15 15 17 19 21 23 22 19 12 6 4 4 2 4 6 3 2 1 5 5 4 2 2 1 1 2 2 3 2 2 3 2 4 4 6 6 8 8 9 7 11 16 16 17 17 16 18 19
14 15 14 15 15 15 14 15 17 20 23 25 20 5 2 2 2 2 4 7 2 3 2 1 1 2 4 2 1 4 3 1 2 1 0 3 3 3 4 4 6 7 5 9 11 11 12 13 15 16 15 18 16 17
14 14 14 13 13 13 13 14 17 21 25 17 3 3 2 1 11 2 3 3 3 2 2 2 1 3 3 1 2 2 3 1 2 3 2 4 1 3 5 6 7 9 9 8 7 10 12 15 15 17 17 16 14 15
13 13 12 11 11 11 12 13 16 22 8 5 5 3 4 12 2 2 1 1 0 1 2 4 4 2 2 2 3 1 1 1 2 5 4 1 1 3 4 7 8 9 9 10 8 10 12 13 13 15 15 15 13 14
11 10 11 10 11 11 11 12 12 5 1 3 5 4 3 3 2 1 2 2 2 3 3 3 4 5 2 3 3 2 1 2 4 2 3 3 3 4 6 9 12 10 9 11 10 10 11 12 13 13 13 13 13 14
10 9 10 11 12 12 11 11 11 10 7 1 1 2 1 1 3 1 2 1 2 2 2 1 2 0 3 4 3 3 2 4 1 2 2 1 2 5 6 7 10 9 9 9 11 11 12 13 13 11 12 12 13 12
9 9 10 11 12 12 11 10 9 6 2 1 2 6 2 2 3 4 2 3 3 2 2 1 1 1 2 2 2 1 3 1 1 3 0 3 5 5 7 6 5 10 9 10 10 11 12 11 11 11 12 11 11 12
9 10 11 10 10 11 11 10 8 0 1 2 1 3 3 3 4 5 3 1 2 1 3 2 3 3 2 2 2 2 1 1 3 1 2 3 4 5 6 6 7 7 8 9 8 9 10 10 9 10 11 11 11 11
9 10 2 8 11 13 14 6 1 1 1 2 3 3 4 2 4 4 4 3 2 3 2 4 2 3 2 1 1 2 2 1 2 3 3 3 4 5 6 7 7 6 6 8 7 7 7 8 8 8 9 10 11 11
5 3 5 9 14 15 4 2 2 2 3 3 3 3 2 4 5 4 3 2 1 3 2 3 1 3 1 1 2 3 4 4 4 3 3 3 4 7 7 7 7 5 5 7 6 6 6 6 5 7 10 11 10 9
3 4 9 12 10 5 2 1 0 2 4 4 1 4 3 3 4 5 2 0 3 2 2 3 3 2 2 2 3 3 3 3 3 3 3 3 4 7 5 6 6 5 6 8 10 8 4 4 4 3 6 8 8 11
4 6 11 10 4 2 3 2 3 2 5 3 3 3 3 5 5 3 2 3 2 2 3 2 0 3 4 4 4 3 3 3 3 3 3 4 6 7 6 5 5 5 8 12 12 7 4 3 3 1 2 3 4 4
11 13 9 6 3 2 4 4 2 1 4 4 3 3 3 4 4 4 3 1 3 2 2 3 4 5 4 4 5 4 4 3 2 2 4 4 4 5 4 3 2 5 8 11 9 6 1 1 1 2 2 3 4 5
4 3 6 2 1 1 2 3 4 4 4 3 3 2 5 3 3 3 3 2 3 3 3 4 4 4 5 4 2 3 3 3 4 4 4 3 4 3 3 4 5 6 7 6 5 3 2 1 3 2 3 3 3 3
3 7 2 1 1 2 3 3 3 3 2 4 4 1 3 3 3 3 1 2 2 3 3 2 2 2 2 4 5 5 4 3 2 3 2 2 3 3 5 5 6 9 8 6 3 2 2 0 1 2 1 0 3 4
6 3 2 1 2 1 7 1 2 3 2 4 4 4 3 3 3 1 1 1 1 1 1 1 3 2 3 5 3 4 4 4 3 3 1 2 2 2 5 9 8 8 8 4 3 2 1 3 5 4 4 5 4 4
2 2 1 2 2 4 3 3 3 3 3 2 2 4 3 3 4 2 1 3 3 3 3 3 3 3 4 3 4 3 4 2 1 3 1 1 2 3 5 8 8 6 4 4 2 5 5 4 3 4 5 5 5 5
3 2 2 4 3 2 3 3 3 2 3 3 2 4 4 2 2 2 1 3 2 1 1 3 3 4 3 4 2 2 2 1 1 3 3 1 2 3 6 4 4 4 4 6 5 5 3 3 5 5 4 5 7 5
2 3 5 3 2 3 3 3 2 2 3 3 4 4 3 2 1 2 1 2 2 2 3 2 1 4 5 4 4 6 7 1 2 1 1 3 4 2 1 4 4 5 5 3 4 5 5 4 4 5 5 5 7 6
3 4 4 4 3 2 2 3 3 3 3 3 2 4 2 3 2 1 3 2 2 3 2 3 3 2 4 6 5 5 3 1 3 1 3 6 4 2 3 1 3 3 3 5 5 5 5 5 6 5 6 6 5 4
3 2 5 3 3 3 3 2 3 4 3 2 2 2 2 2 2 3 1 3 4 3 3 3 2 3 6 6 5 4 3 2 3 3 5 6 6 5 5 4 2 3 4 4 4 4 5 6 6 6 7 6 5 5
3 3 1 4 3 4 5 5 4 4 4 2 1 2 4 3 2 1 3 3 4 2 4 4 1 2 4 0 3 3 3 4 5 1 2 3 3 4 4 4 4 3 3 6 10 7 9 7 6 6 6 5 3 3
5 4 3 3 3 5 5 5 3 2 1 1 2 1 3 5 5 3 3 5 4 3 3 4 5 4 5 1 1 4 4 4 2 2 6 3 4 3 3 4 5 5 5 6 6 6 11 8 7 8 8 5 5 5
2 3 3 4 5 4 4 1 1 1 1 2 3 4 5 4 4 4 7 7 5 3 4 4 4 4 3 4 4 4 3 4 5 4 3 3 2 3 4 5 4 5 5 6 6 6 6 5 5 5 6 7 6 5
4 7 5 5 3 0 1 0 2 2 1 1 2 3 2 1 3 4 3 4 3 3 5 4 4 2 3 3 4 3 6 2 3 4 5 4 4 5 4 4 4 5 6 6 5 5 7 6 4 4 5 6 5 5
3 3 4 2 1 2 1 0 2 3 2 2 3 3 3 4 3 4 2 2 3 4 4 4 4 4 4 4 5 5 5 3 4 7 9 9 9 8 5 4 4 5 6 5 5 5 5 4 2 1 3 4 4 5
Wind_Direction
314 315 315 316 320 323 326 329 329 330 332 338 342 343 347 351 354 3 282 320 73 242 278 243 292 95 15 80 119 275 43 353 36 61 98 270 76 18 48 328 358 64 60 343 25 324 295 360 360 354 215 269 258 267
310 311 313 315 316 319 323 326 324 324 326 332 337 339 341 344 350 3 312 326 341 176 246 269 258 235 198 198 141 10 162 190 190 90 54 108 33 44 147 311 340 19 164 212 169 227 240 268 215 224 205 259 286 278
310 308 309 311 313 316 318 322 320 322 323 327 331 333 334 335 344 359 277 294 0 12 302 358 321 338 122 209 168 112 298 202 79 165 152 151 108 128 136 252 294 283 116 191 19 280 242 274 268 227 253 278 291 278
311 309 309 311 313 316 317 319 317 318 319 323 325 325 325 328 332 342 286 263 115 81 34 285 336 307 303 183 159 158 147 59 100 78 102 129 157 164 202 203 176 210 96 199 260 291 307 304 316 293 295 296 287 284
308 308 308 310 312 313 316 315 315 315 315 317 317 317 319 325 326 317 213 242 222 125 241 280 307 263 286 186 170 122 101 96 76 47 73 229 213 109 13 70 259 182 193 157 239 227 213 270 276 285 282 279 280 288
307 307 307 309 310 311 312 313 313 312 311 310 308 307 311 320 334 346 25 236 8 110 83 329 296 291 319 167 179 173 143 117 109 138 219 259 249 110 129 211 330 8 290 190 256 220 231 271 279 281 279 281 285 281
309 309 308 309 309 310 313 314 314 312 310 307 303 302 303 306 126 174 198 228 71 10 75 321 325 286 299 88 338 46 70 178 137 173 211 195 251 97 108 174 296 287 271 271 263 286 280 258 281 297 291 288 287 279
308 307 307 309 312 312 314 317 316 315 312 309 306 303 296 279 244 310 280 269 141 101 75 17 278 347 6 25 325 7 77 33 2 202 44 148 43 61 68 247 267 269 279 279 264 235 254 280 291 285 286 289 293 290
306 307 309 310 311 313 316 318 320 319 316 312 312 321 89 62 36 291 106 123 73 125 148 106 147 272 356 357 282 354 62 25 296 149 201 86 360 61 219 245 273 281 266 273 293 282 277 272 279 287 294 291 289 292
304 307 309 311 311 315 320 325 327 323 318 313 341 26 11 292 319 331 7 15 13 348 52 217 198 268 96 359 335 16 20 40 16 264 75 70 112 252 254 254 270 281 282 286 293 307 307 306 304 304 300 294 288 285
307 307 311 312 313 314 318 329 335 331 347 19 11 335 301 308 38 34 307 129 248 288 193 236 196 248 305 107 225 162 203 319 43 269 107 52 359 259 299 308 291 288 281 284 258 268 280 279 284 300 302 298 299 290
308 312 314 313 312 314 317 327 343 3 359 280 293 287 294 328 24 318 265 289 208 238 208 190 227 195 276 107 91 345 101 34 243 308 97 105 245 274 318 303 303 304 310 312 318 308 306 311 310 313 316 317 318 307
310 315 311 308 309 309 310 320 329 312 306 163 265 308 32 265 26 239 312 279 276 221 228 350 329 81 5 54 70 73 59 239 25 51 97 179 267 289 302 297 302 319 328 326 329 332 330 327 329 334 330 338 329 329
313 312 309 311 309 309 315 319 330 344 355 344 321 319 189 277 256 230 231 266 264 265 6 107 7 65 333 55 138 113 245 55 256 67 161 249 248 279 297 289 309 324 320 320 328 335 340 339 330 340 347 337 338 347
313 309 311 305 328 330 327 322 322 345 35 292 339 258 242 278 285 276 242 136 305 40 67 27 41 66 345 43 358 54 261 185 43 179 245 247 267 283 298 311 309 318 318 320 327 335 327 329 328 341 343 342 352 355
316 318 305 322 327 317 308 320 17 104 276 256 244 299 296 345 310 333 335 320 340 104 54 48 42 29 320 137 330 265 340 148 228 225 248 274 278 304 288 295 295 294 306 313 320 320 322 338 328 329 328 355 356 356
337 255 325 336 329 321 354 85 12 248 238 278 271 248 228 255 244 270 270 272 353 55 167 109 121 231 38 351 258 184 181 214 225 253 252 248 257 277 282 295 309 317 313 318 321 322 315 327 339 10 4 342 345 356
258 311 330 335 341 328 328 75 269 280 265 253 259 275 271 235 265 280 269 228 70 105 95 236 128 122 215 232 266 247 241 248 238 245 260 270 278 286 284 306 317 310 305 329 334 316 286 325 27 13 11 343 350 1
275 301 306 316 336 336 337 282 151 268 257 264 265 265 260 273 273 272 268 287 131 165 117 51 102 195 231 214 212 234 254 230 254 280 276 282 273 287 323 332 323 331 348 319 309 296 278 254 249 288 23 24 3 346
289 290 295 302 136 36 318 281 133 225 277 263 286 287 263 246 279 303 301 199 137 118 68 142 196 239 200 227 203 202 199 204 193 311 296 298 295 319 348 332 328 298 291 299 289 254 244 52 227 255 323 337 13 346
322 291 335 99 70 140 232 300 302 219 280 287 277 312 269 325 274 266 272 154 91 168 227 223 237 250 254 250 187 167 220 185 216 197 228 283 293 313 343 344 316 298 298 294 299 308 348 295 268 244 226 256 293 337
275 336 358 256 350 258 242 233 214 275 299 261 316 260 288 295 275 249 210 79 199 236 193 217 284 305 260 238 232 225 262 190 208 227 269 254 292 352 316 304 305 296 301 293 292 281 32 269 321 15 123 191 47 11
322 13 319 308 322 352 263 311 261 253 264 275 333 312 274 282 245 347 49 262 285 276 208 235 289 283 274 297 297 296 255 241 228 228 152 238 248 296 312 296 300 302 307 311 251 144 81 38 39 64 60 57 69 48
353 25 317 280 202 268 303 273 235 270 274 273 261 278 303 263 314 30 334 342 305 318 2 326 10 351 344 11 17 352 347 18 342 30 23 271 32 305 283 292 303 293 255 268 82 95 74 51 46 85 77 80 58 49
8 286 109 283 251 265 259 267 257 261 276 309 304 294 270 14 337 3 95 303 308 298 314 342 354 16 3 336 19 2 351 56 47 298 316 194 119 274 285 285 296 346 344 61 58 88 99 95 61 63 83 100 103 74
256 212 169 242 211 198 248 274 316 319 285 275 257 271 358 20 305 60 306 272 266 266 263 233 252 37 349 341 324 315 299 353 58 155 107 259 231 195 160 353 358 347 2 27 56 53 50 71 71 65 81 94 93 87
258 246 244 225 252 280 291 276 261 253 258 256 295 318 311 270 80 331 285 264 259 261 233 211 127 159 260 286 291 269 288 213 253 220 252 271 284 223 151 204 278 263 349 51 66 78 84 83 87 63 65 49 45 68
253 270 204 263 222 213 233 256 251 242 238 221 60 286 287 350 187 262 304 310 264 294 290 266 166 192 257 286 283 306 57 138 249 12 321 305 279 273 286 214 199 110 67 47 57 42 71 107 114 94 88 85 59 29
249 251 174 261 250 228 220 211 235 243 190 126 159 327 290 274 235 330 288 316 334 350 323 317 143 185 258 329 16 17 29 102 129 100 57 310 5 16 35 102 87 63 62 66 48 56 76 79 77 90 96 90 81 56
250 174 195 245 208 230 232 199 242 305 321 276 212 223 235 249 250 249 283 305 323 313 245 267 293 305 283 211 132 47 26 33 60 129 90 332 310 326 63 82 80 77 70 77 76 57 46 57 41 46 48 39 33 33
228 159 220 227 239 231 219 291 302 257 244 244 211 227 252 274 294 244 223 229 225 255 294 307 335 351 344 119 135 107 33 355 5 20 89 103 51 49 88 103 99 99 91 91 93 94 89 73 74 71 59 49 40 36
190 204 200 217 256 355 71 69 306 295 272 265 260 221 266 240 272 279 251 151 173 233 245 197 198 96 82 101 92 88 99 72 25 359 36 62 32 63 84 87 94 96 99 101 98 95 98 105 88 71 56 48 37 20
221 205 192 157 181 221 216 162 255 280 221 260 256 216 216 199 247 264 300 181 184 197 187 145 126 120 126 129 119 106 91 89 79 55 54 54 63 71 73 73 77 83 92 88 82 88 94 112 104 62 47 44 24 358